SCP
0 0 0 0 0 0 0 0 0 0 0 0 0 0 0 0 0 0 0 0 0 0 0 0 0 0 0 0 0 0 0 0 0 0 0 0 0 0 0 0 0 0 0 0
0 0 0 0 0 0 0 0 0 0 0 0 0 0 0 0 0 0 0 0 0 0 0 0 0 0 0 0 0 0 0 0 0 0 0 0 0 0 0 0 0 0 0 0
0 0 0 0 0 0 0 0 0 0 0 0 0 0 0 0 0 0 0 0 0 0 0 0 0 0 0 0 0 0 0 0 0 0 0 0 0 0 0 0 0 0 0 0
0 0 0 0 0 0 0 0 0 0 0 0 0 0 0 0 0 0 0 0 0 0 0 0 0 0 0 0 0 0 0 0 0 0 0 0 0 0 0 0 0 0 0 0
0 0 0 0 0 0 0 0 0 0 0 0 0 0 0 0 0 0 0 0 0 0 0 0 0 0 0 0 0 0 0 0 0 0 0 0 0 0 0 0 0 0 0 0
0 0 0 0 0 0 0 0 0 0 0 0 0 0 0 0 0 0 0 0 0 0 0 0 0 0 0 0 0 0 0 0 0 0 0 0 0 0 0 0 0 0 0 0
0 0 0 0 0 0 0 0 0 0 0 0 0 0 0 0 0 0 0 0 0 0 0 0 0 0 0 0 0 0 0 0 0 0 0 0 0 0 0 0 0 0 0 0
0 0 0 0 0 0 0 0 0 0 0 0 0 0 0 0 0 0 0 0 0 0 0 0 0 0 0 0 0 0 0 0 0 0 0 0 0 0 0 0 0 0 0 0
0 0 0 0 0 0 0 0 0 0 0 0 0 0 0 0 0 0 0 0 0 0 0 0 0 0 0 0 0 0 0 0 0 0 0 0 0 0 0 0 0 0 0 0
0 0 0 0 0 0 0 0 0 0 0 0 0 0 0 0 0 0 0 0 0 0 0 0 0 0 0 0 0 0 0 0 0 0 0 0 0 0 0 0 0 0 0 0
0 0 0 0 0 0 0 0 0 0 0 0 0 0 0 0 0 0 0 0 0 0 0 0 0 0 0 0 0 0 0 0 0 0 0 0 0 0 0 0 0 0 0 0
0 0 0 0 0 0 0 0 0 0 0 0 0 0 0 0 0 0 0 0 0 0 0 0 0 0 0 0 0 0 0 0 0 0 0 0 0 0 0 0 0 0 0 0
0 0 0 0 0 0 0 0 0 0 0 0 0 0 0 0 0 0 0 0 0 0 0 0 0 0 0 0 0 0 0 0 0 0 0 0 0 0 0 0 0 0 0 0
0 0 0 0 0 0 0 0 0 0 0 0 0 0 0 0 0 0 0 0 0 0 0 0 0 0 0 0 0 0 0 0 0 0 0 0 0 0 0 0 0 0 0 0
0 0 0 0 0 0 0 0 0 0 0 0 0 0 0 0 0 0 0 0 0 0 0 0 0 0 0 0 0 0 0 0 0 0 0 0 0 0 0 0 0 0 0 0
0 0 0 0 0 0 0 0 0 0 0 0 0 0 0 0 0 0 0 0 0 0 0 0 0 0 0 0 0 0 0 0 0 0 0 0 0 0 0 0 0 0 0 0
0 0 0 0 0 0 0 0 0 0 0 0 0 0 0 0 0 0 0 0 0 0 0 0 0 0 0 0 0 0 0 0 0 0 0 0 0 0 0 0 0 0 0 0
0 0 0 0 0 0 0 0 0 0 0 0 0 0 0 0 0 0 0 0 0 0 0 0 0 0 0 0 0 0 0 0 0 0 0 0 0 0 0 0 0 0 0 0
0 0 0 0 0 0 0 0 0 0 0 0 0 0 0 0 0 0 0 0 0 0 0 0 0 0 0 0 0 0 0 0 0 0 0 0 0 0 0 0 0 0 0 0
0 0 0 0 0 0 0 0 0 0 0 0 0 0 0 0 0 0 0 0 0 0 0 0 0 0 0 0 0 0 0 0 0 0 0 0 0 0 0 0 0 0 0 0
0 0 0 0 0 0 0 0 0 0 0 0 0 0 0 0 0 0 0 0 0 0 0 0 0 0 0 0 0 0 0 0 0 0 0 0 0 0 0 0 0 0 0 0
0 0 0 0 0 0 0 0 0 0 0 0 0 0 0 0 0 0 0 0 0 0 0 0 0 0 0 0 0 0 0 0 0 0 0 0 0 0 0 0 0 0 0 0
0 0 0 0 0 0 0 0 0 0 0 0 0 0 0 0 0 0 0 0 0 0 0 0 0 0 0 0 0 0 0 0 0 0 0 0 0 0 0 0 0 0 0 0
0 0 0 0 0 0 0 0 0 0 0 0 0 0 0 0 0 0 0 0 0 0 0 0 0 0 0 0 0 0 0 0 0 0 0 0 0 0 0 0 0 0 0 0
0 0 0 0 0 0 0 0 0 0 0 0 0 0 0 0 0 0 0 0 0 0 0 0 0 0 0 0 0 0 0 0 0 0 0 0 0 0 0 0 0 0 0 0
0 0 0 0 0 0 0 0 0 0 0 0 0 0 0 0 0 0 0 0 0 0 0 0 0 0 0 0 0 0 0 0 0 0 0 0 0 0 0 0 0 0 0 0
0 0 0 0 0 0 0 0 0 0 0 0 0 0 0 0 0 0 0 0 0 0 0 0 0 0 0 0 0 0 0 0 0 0 0 0 0 0 0 0 0 0 0 0
Wind_Speed
9 7 13 14 16 18 18 16 12 11 11 9 7 7 7 7 7 6 6 6 6 6 5 6 7 6 7 7 7 7 7 7 7 7 6 6 6 7 6 6 6 6 6 5
12 9 6 10 15 18 19 17 15 12 12 7 4 3 3 5 6 6 6 7 7 6 6 6 7 7 6 7 7 7 7 6 6 6 6 6 7 6 6 6 5 5 6 5
10 9 6 12 14 15 15 15 14 16 14 7 6 5 5 5 5 6 6 6 7 7 6 6 6 7 7 7 7 7 6 6 6 6 6 6 6 6 6 6 5 5 5 5
6 8 13 11 10 13 13 13 13 11 8 8 7 5 4 5 6 6 6 7 6 6 6 5 6 6 6 7 7 7 6 6 6 6 6 6 6 6 5 4 5 5 5 5
5 7 8 6 9 13 14 13 13 13 11 8 5 1 3 4 5 6 6 6 6 6 7 6 6 7 7 7 7 6 6 6 6 6 6 6 5 5 4 4 4 4 4 5
5 7 9 7 10 8 6 10 10 12 12 9 8 5 6 4 5 6 7 7 7 7 7 7 6 7 8 7 7 6 5 5 6 6 6 6 5 4 3 3 4 3 3 4
7 6 7 4 9 11 9 9 8 11 10 10 11 8 6 7 6 8 8 8 8 8 7 6 6 7 7 7 6 5 5 5 5 5 5 4 4 3 3 2 2 2 3 4
9 8 8 5 10 11 7 3 4 6 7 8 7 8 8 8 8 9 8 8 8 8 7 6 6 7 7 6 6 6 6 5 5 4 4 3 3 3 2 2 2 3 3 4
10 9 4 10 9 7 5 5 4 4 5 8 8 8 8 8 8 8 8 7 7 8 8 6 5 6 7 6 6 6 6 5 4 4 3 3 3 2 2 1 2 2 2 3
6 8 8 9 6 5 4 5 5 5 7 8 8 9 9 9 8 8 7 7 7 8 8 6 5 6 7 6 6 6 6 4 4 3 3 2 2 2 2 2 2 2 3 4
8 5 8 8 9 8 6 6 6 6 6 8 10 9 9 9 9 8 7 6 7 7 8 7 7 7 6 6 6 6 5 4 3 2 2 1 1 2 2 3 4 4 4 4
8 8 7 8 9 9 9 8 8 8 6 6 8 10 9 9 8 8 8 7 7 8 8 7 7 7 6 5 6 6 4 3 2 2 1 1 0 1 3 4 7 9 9 8
6 6 6 6 8 10 9 9 8 8 8 8 7 8 10 9 8 9 8 8 8 8 8 8 7 6 5 5 5 5 4 3 2 1 1 1 1 1 3 5 7 9 11 13
3 3 5 6 7 8 8 8 8 8 7 8 8 9 10 9 9 10 9 8 8 9 8 8 8 6 5 5 5 5 4 3 2 1 1 1 1 2 3 3 4 4 7 12
5 4 6 6 8 8 8 9 10 8 8 8 8 10 11 11 10 9 8 9 9 9 8 8 7 6 5 5 5 4 3 2 1 1 0 1 2 2 3 4 4 5 4 6
6 5 7 8 9 9 9 9 10 9 9 9 9 9 10 10 10 10 8 9 10 9 8 8 7 5 5 5 4 3 2 1 0 0 1 2 2 2 3 4 4 4 5 5
10 9 8 8 9 9 9 9 10 11 10 10 11 12 13 13 12 10 8 8 8 8 7 8 6 5 5 4 4 2 1 0 1 1 2 2 3 3 4 4 5 5 5 7
10 11 11 12 11 10 9 9 10 11 11 11 13 13 13 13 13 11 10 10 10 8 7 6 6 5 4 3 3 2 1 0 1 2 2 3 3 3 4 4 5 6 5 7
8 9 9 9 10 10 10 10 10 11 12 13 13 12 10 10 11 11 10 10 10 8 5 5 7 5 3 3 3 1 0 1 2 2 3 6 5 4 4 5 5 5 6 6
8 8 9 9 9 10 11 11 12 11 11 12 13 13 12 11 10 10 10 7 5 5 6 5 5 3 3 2 2 0 1 2 2 3 3 3 4 4 4 5 5 6 6 6
10 10 11 11 11 10 11 13 13 13 11 11 13 13 13 11 9 9 9 7 5 6 6 6 4 3 2 1 2 1 1 2 2 3 3 3 4 4 5 5 6 7 7 7
10 11 12 12 13 12 10 10 12 14 13 13 13 13 13 12 10 8 7 6 6 7 5 3 3 3 2 2 1 1 2 2 2 2 3 3 4 5 5 6 6 7 7 6
10 12 13 13 14 14 13 11 12 13 13 13 13 12 12 9 7 7 7 4 4 6 4 2 2 3 4 2 1 1 2 2 2 3 3 4 4 5 6 6 6 7 7 7
12 12 12 13 14 15 15 12 12 11 13 12 11 10 10 9 7 6 6 8 7 6 3 2 3 4 5 2 1 1 2 2 3 3 4 4 5 5 5 6 7 7 7 8
13 13 13 14 14 12 14 14 14 13 13 11 11 9 7 6 7 6 5 5 6 5 3 3 4 5 3 1 1 2 2 3 4 5 4 4 5 5 6 6 7 7 8 8
11 10 9 9 10 10 10 10 10 9 10 10 8 7 7 6 7 6 5 4 4 4 3 2 2 3 1 1 2 3 3 4 5 4 5 5 6 7 7 7 9 8 8 8
12 11 10 11 9 8 8 9 10 9 8 9 9 7 6 6 6 5 5 3 3 2 2 1 1 1 2 2 3 3 3 4 4 5 5 5 6 6 7 8 8 8 8 9
Wind_Direction
228 206 178 191 201 208 215 219 223 228 230 229 210 195 188 185 185 171 159 164 170 174 175 168 167 171 168 167 163 160 162 166 169 164 161 161 159 159 159 161 167 169 172 180
232 231 210 207 205 208 218 224 234 244 248 244 250 212 198 196 183 173 173 172 170 172 170 168 167 167 163 161 158 154 159 163 159 157 158 159 158 157 158 164 167 170 179 186
222 216 224 234 215 210 215 219 222 235 241 244 248 231 215 207 184 179 179 170 169 172 171 164 160 158 159 156 148 149 153 155 157 156 156 156 155 158 165 171 172 180 188 194
198 194 223 232 201 208 219 223 218 228 230 221 225 221 195 186 186 187 174 162 162 158 151 144 139 138 137 136 138 143 148 153 152 149 151 152 158 168 173 173 179 187 197 204
190 203 238 229 199 196 207 230 218 223 228 223 208 199 247 207 178 169 155 145 143 140 134 128 128 129 126 128 132 141 150 151 150 149 153 159 168 175 176 176 187 193 198 206
186 199 220 216 186 172 177 244 219 211 217 206 166 198 230 181 152 136 121 116 118 117 115 118 122 123 126 132 135 144 145 143 142 147 154 163 170 174 175 176 186 189 205 216
193 210 244 218 155 133 173 229 207 199 202 186 183 194 160 129 117 117 115 115 116 115 115 121 123 123 126 127 135 135 129 129 134 142 150 157 161 163 161 162 170 199 225 237
194 207 226 173 149 170 196 175 165 170 173 164 156 134 130 126 123 120 120 122 121 115 112 114 119 123 124 128 129 123 124 127 132 136 139 143 146 152 154 161 190 224 240 254
194 208 181 171 184 191 153 153 155 147 142 142 141 144 139 136 134 132 133 129 121 121 118 115 117 124 128 130 126 123 123 125 126 125 126 134 141 147 156 175 204 235 245 258
195 198 183 187 188 179 164 153 145 140 140 142 144 145 143 143 141 138 133 130 126 127 126 124 117 111 120 124 123 122 124 124 123 124 129 129 130 151 174 202 223 241 252 261
213 181 160 191 195 181 164 138 129 129 143 149 143 147 149 147 146 142 134 131 132 134 132 129 119 113 116 120 121 120 119 119 117 120 132 136 159 196 206 216 219 237 242 244
208 189 175 195 194 177 165 168 162 152 146 146 148 150 146 145 142 137 136 134 132 129 127 125 120 117 115 116 118 119 119 118 119 121 119 131 210 302 282 271 275 272 272 274
209 183 177 172 171 172 174 172 164 159 156 151 146 143 141 137 135 133 135 138 137 132 129 125 122 118 115 111 110 114 122 125 121 122 136 180 240 258 286 294 282 283 286 290
191 154 165 168 167 162 156 151 142 137 138 141 139 133 130 127 130 134 140 138 128 124 123 123 121 119 114 107 106 107 110 120 130 148 174 224 250 260 266 280 293 290 291 296
191 176 166 150 135 129 127 128 130 137 136 133 131 132 134 135 136 132 127 123 120 118 120 121 120 116 108 104 105 108 110 121 122 132 213 257 266 270 274 279 283 288 292 296
168 141 132 138 144 143 141 145 149 153 147 140 135 133 129 124 120 118 120 126 129 130 128 123 120 115 106 105 105 102 109 126 94 206 262 275 276 277 279 280 284 287 289 293
157 166 165 164 166 167 168 164 159 154 148 144 138 129 123 121 120 119 116 111 112 114 115 119 118 111 106 107 108 112 112 137 307 302 266 265 268 271 274 280 283 286 285 293
180 181 177 173 171 168 162 153 147 145 144 138 131 131 135 137 136 131 124 115 108 100 97 108 112 108 102 100 100 102 107 210 254 260 266 270 279 273 277 278 281 285 287 295
179 174 169 164 160 154 148 141 137 131 130 133 134 134 129 126 127 126 124 122 123 121 116 114 112 106 105 101 89 96 149 272 276 275 273 290 296 282 280 281 283 285 289 292
167 154 144 138 134 134 133 130 127 126 129 130 125 120 118 120 122 121 115 105 107 122 125 119 109 107 105 96 60 65 275 276 280 283 283 281 283 286 286 288 290 291 291 290
150 136 129 126 121 120 127 130 131 129 126 125 126 126 123 119 118 118 115 109 103 107 111 111 105 105 99 51 359 309 284 284 287 288 291 293 294 295 294 293 293 296 297 296
132 128 125 123 120 115 114 117 122 122 119 115 115 118 119 117 111 99 92 110 121 112 103 98 101 94 45 4 338 298 293 296 299 300 298 298 297 294 293 294 294 295 295 292
123 123 123 123 121 115 106 106 111 115 117 119 121 122 119 117 116 117 112 109 109 100 93 93 86 43 359 6 344 326 322 318 312 307 301 296 292 291 291 293 293 294 292 291
114 113 114 114 113 112 110 106 102 103 103 101 100 105 110 108 92 82 102 109 102 92 87 76 43 10 3 21 354 338 327 317 306 296 291 289 288 289 290 292 293 293 292 292
110 112 116 118 115 114 114 112 107 104 101 97 91 85 83 91 105 105 99 98 97 87 79 49 25 12 19 1 340 323 312 298 295 298 293 296 295 294 293 293 293 293 293 291
109 109 107 105 111 118 121 119 114 113 112 108 100 93 90 90 94 96 94 92 86 74 69 54 24 8 3 333 315 304 297 302 309 306 296 295 294 293 292 292 292 291 289 288
101 103 103 101 99 103 107 109 111 111 113 115 110 103 99 97 95 94 92 88 80 72 61 40 16 346 324 311 303 298 296 294 292 289 291 291 289 288 289 289 290 289 288 288